Year,Month,Day,Hour,Minute,Value (Times are PST for windspeed in km/hr)
2008,12,29,00,00,0.70
2008,12,29,00,01,0.20
2008,12,29,00,02,1.40
2008,12,29,00,03,2.80
2008,12,29,00,04,1.50
2008,12,29,00,05,0.00
2008,12,29,00,06,1.60
2008,12,29,00,07,0.30
2008,12,29,00,08,0.70
2008,12,29,00,09,0.30
2008,12,29,00,10,1.80
2008,12,29,00,11,1.10
2008,12,29,00,12,2.60
2008,12,29,00,13,1.80
2008,12,29,00,14,0.80
2008,12,29,00,15,1.20
2008,12,29,00,16,1.10
2008,12,29,00,17,2.30
2008,12,29,00,18,1.80
2008,12,29,00,19,1.30
2008,12,29,00,20,2.20
2008,12,29,00,21,0.50
2008,12,29,00,22,1.00
2008,12,29,00,23,2.10
2008,12,29,00,24,1.10
2008,12,29,00,25,0.80
2008,12,29,00,26,1.40
2008,12,29,00,27,0.30
2008,12,29,00,28,0.40
2008,12,29,00,29,3.50
2008,12,29,00,30,2.20
2008,12,29,00,31,0.00
2008,12,29,00,32,0.00
2008,12,29,00,33,0.40
2008,12,29,00,34,1.20
2008,12,29,00,35,2.30
2008,12,29,00,36,0.50
2008,12,29,00,37,0.00
2008,12,29,00,38,0.20
2008,12,29,00,39,1.10
2008,12,29,00,40,1.50
2008,12,29,00,41,1.30
2008,12,29,00,42,0.00
2008,12,29,00,43,0.30
2008,12,29,00,44,1.70
2008,12,29,00,45,0.10
2008,12,29,00,46,0.30
2008,12,29,00,47,1.30
2008,12,29,00,48,2.00
2008,12,29,00,49,2.00
2008,12,29,00,50,2.90
2008,12,29,00,51,2.00
2008,12,29,00,52,0.20
2008,12,29,00,53,1.80
2008,12,29,00,54,1.40
2008,12,29,00,55,2.00
2008,12,29,00,56,3.60
2008,12,29,00,57,1.60
2008,12,29,00,58,1.50
2008,12,29,00,59,1.40
2008,12,29,01,00,1.90
2008,12,29,01,01,2.70
2008,12,29,01,02,1.60
2008,12,29,01,03,0.00
2008,12,29,01,04,0.00
2008,12,29,01,05,0.00
2008,12,29,01,06,1.40
2008,12,29,01,07,2.10
2008,12,29,01,08,0.30
2008,12,29,01,09,0.00
2008,12,29,01,10,0.00
2008,12,29,01,11,0.70
2008,12,29,01,12,0.30
2008,12,29,01,13,1.70
2008,12,29,01,14,1.30
2008,12,29,01,15,0.40
2008,12,29,01,16,0.50
2008,12,29,01,17,1.30
2008,12,29,01,18,0.10
2008,12,29,01,19,0.60
2008,12,29,01,20,1.60
2008,12,29,01,21,2.10
2008,12,29,01,22,1.40
2008,12,29,01,23,3.30
2008,12,29,01,24,0.30
2008,12,29,01,25,0.30
2008,12,29,01,26,0.60
2008,12,29,01,27,1.90
2008,12,29,01,28,0.30
2008,12,29,01,29,0.40
2008,12,29,01,30,0.30
2008,12,29,01,31,0.40
2008,12,29,01,32,0.90
2008,12,29,01,33,0.10
2008,12,29,01,34,0.30
2008,12,29,01,35,0.20
2008,12,29,01,36,0.50
2008,12,29,01,37,0.10
2008,12,29,01,38,0.00
2008,12,29,01,39,0.90
2008,12,29,01,40,0.50
2008,12,29,01,41,0.30
2008,12,29,01,42,1.10
2008,12,29,01,43,2.00
2008,12,29,01,44,1.20
2008,12,29,01,45,1.50
2008,12,29,01,46,1.30
2008,12,29,01,47,0.90
2008,12,29,01,48,0.90
2008,12,29,01,49,1.40
2008,12,29,01,50,1.40
2008,12,29,01,51,0.20
2008,12,29,01,52,0.00
2008,12,29,01,53,1.40
2008,12,29,01,54,2.30
2008,12,29,01,55,0.80
2008,12,29,01,56,3.10
2008,12,29,01,57,2.00
2008,12,29,01,58,3.60
2008,12,29,01,59,3.00
2008,12,29,02,00,1.60
2008,12,29,02,01,2.40
2008,12,29,02,02,0.40
2008,12,29,02,03,1.40
2008,12,29,02,04,3.20
2008,12,29,02,05,0.30
2008,12,29,02,06,0.50
2008,12,29,02,07,0.30
2008,12,29,02,08,0.90
2008,12,29,02,09,0.00
2008,12,29,02,10,0.20
2008,12,29,02,11,1.00
2008,12,29,02,12,0.50
2008,12,29,02,13,0.00
2008,12,29,02,14,0.00
2008,12,29,02,15,0.00
2008,12,29,02,16,0.00
2008,12,29,02,17,0.00
2008,12,29,02,18,0.50
2008,12,29,02,19,0.00
2008,12,29,02,20,0.00
2008,12,29,02,21,0.00
2008,12,29,02,22,0.00
2008,12,29,02,23,0.00
2008,12,29,02,24,0.00
2008,12,29,02,25,0.00
2008,12,29,02,26,1.30
2008,12,29,02,27,0.00
2008,12,29,02,28,0.90
2008,12,29,02,29,1.40
2008,12,29,02,30,1.40
2008,12,29,02,31,0.40
2008,12,29,02,32,1.50
2008,12,29,02,33,0.70
2008,12,29,02,34,1.00
2008,12,29,02,35,1.50
2008,12,29,02,36,1.80
2008,12,29,02,37,0.20
2008,12,29,02,38,0.00
2008,12,29,02,39,0.10
2008,12,29,02,40,0.20
2008,12,29,02,41,1.30
2008,12,29,02,42,1.50
2008,12,29,02,43,4.20
2008,12,29,02,44,3.30
2008,12,29,02,45,1.50
2008,12,29,02,46,4.60
2008,12,29,02,47,0.90
2008,12,29,02,48,1.60
2008,12,29,02,49,1.90
2008,12,29,02,50,1.40
2008,12,29,02,51,0.20
2008,12,29,02,52,1.30
2008,12,29,02,53,3.20
2008,12,29,02,54,1.40
2008,12,29,02,55,1.50
2008,12,29,02,56,1.30
2008,12,29,02,57,1.70
2008,12,29,02,58,0.30
2008,12,29,02,59,0.00
2008,12,29,03,00,0.20
2008,12,29,03,01,1.30
2008,12,29,03,02,0.30
2008,12,29,03,03,0.00
2008,12,29,03,04,0.00
2008,12,29,03,05,0.30
2008,12,29,03,06,0.00
2008,12,29,03,07,0.00
2008,12,29,03,08,0.00
2008,12,29,03,09,0.10
2008,12,29,03,10,0.00
2008,12,29,03,11,0.10
2008,12,29,03,12,0.00
2008,12,29,03,13,0.00
2008,12,29,03,14,0.00
2008,12,29,03,15,0.00
2008,12,29,03,16,0.00
2008,12,29,03,17,0.00
2008,12,29,03,18,0.00
2008,12,29,03,19,0.00
2008,12,29,03,20,0.50
2008,12,29,03,21,0.30
2008,12,29,03,22,2.20
2008,12,29,03,23,1.70
2008,12,29,03,24,2.50
2008,12,29,03,25,1.30
2008,12,29,03,26,4.10
2008,12,29,03,27,2.80
2008,12,29,03,28,2.40
2008,12,29,03,29,1.40
2008,12,29,03,30,2.10
2008,12,29,03,31,2.00
2008,12,29,03,32,1.90
2008,12,29,03,33,3.20
2008,12,29,03,34,3.20
2008,12,29,03,35,1.10
2008,12,29,03,36,1.40
2008,12,29,03,37,2.20
2008,12,29,03,38,3.50
2008,12,29,03,39,3.00
2008,12,29,03,40,4.20
2008,12,29,03,41,4.40
2008,12,29,03,42,4.30
2008,12,29,03,43,3.60
2008,12,29,03,44,7.70
2008,12,29,03,45,5.80
2008,12,29,03,46,4.50
2008,12,29,03,47,2.20
2008,12,29,03,48,3.00
2008,12,29,03,49,2.90
2008,12,29,03,50,5.90
2008,12,29,03,51,4.40
2008,12,29,03,52,4.70
2008,12,29,03,53,5.70
2008,12,29,03,54,6.60
2008,12,29,03,55,4.20
2008,12,29,03,56,6.00
2008,12,29,03,57,6.90
2008,12,29,03,58,5.40
2008,12,29,03,59,1.50
2008,12,29,04,00,2.70
2008,12,29,04,01,1.90
2008,12,29,04,02,1.40
2008,12,29,04,03,2.60
2008,12,29,04,04,4.50
2008,12,29,04,05,1.80
2008,12,29,04,06,2.00
2008,12,29,04,07,2.90
2008,12,29,04,08,2.10
2008,12,29,04,09,2.90
2008,12,29,04,10,6.10
2008,12,29,04,11,6.90
2008,12,29,04,12,6.70
2008,12,29,04,13,6.60
2008,12,29,04,14,5.50
2008,12,29,04,15,5.00
2008,12,29,04,16,4.00
2008,12,29,04,17,4.00
2008,12,29,04,18,3.50
2008,12,29,04,19,1.80
2008,12,29,04,20,2.70
2008,12,29,04,21,3.40
2008,12,29,04,22,2.40
2008,12,29,04,23,1.40
2008,12,29,04,24,0.90
2008,12,29,04,25,1.60
2008,12,29,04,26,1.90
2008,12,29,04,27,2.00
2008,12,29,04,28,2.70
2008,12,29,04,29,0.30
2008,12,29,04,30,1.70
2008,12,29,04,31,2.00
2008,12,29,04,32,3.10
2008,12,29,04,33,0.30
2008,12,29,04,34,1.10
2008,12,29,04,35,2.10
2008,12,29,04,36,3.00
2008,12,29,04,37,2.00
2008,12,29,04,38,1.30
2008,12,29,04,39,1.40
2008,12,29,04,40,0.70
2008,12,29,04,41,0.30
2008,12,29,04,42,1.30
2008,12,29,04,43,1.10
2008,12,29,04,44,0.60
2008,12,29,04,45,1.90
2008,12,29,04,46,0.70
2008,12,29,04,47,0.20
2008,12,29,04,48,0.00
2008,12,29,04,49,0.00
2008,12,29,04,50,0.00
2008,12,29,04,51,0.70
2008,12,29,04,52,2.60
2008,12,29,04,53,3.00
2008,12,29,04,54,1.40
2008,12,29,04,55,0.80
2008,12,29,04,56,0.90
2008,12,29,04,57,1.10
2008,12,29,04,58,1.30
2008,12,29,04,59,0.70
2008,12,29,05,00,0.30
2008,12,29,05,01,1.70
2008,12,29,05,02,2.90
2008,12,29,05,03,3.30
2008,12,29,05,04,2.90
2008,12,29,05,05,2.20
2008,12,29,05,06,0.50
2008,12,29,05,07,0.10
2008,12,29,05,08,0.20
2008,12,29,05,09,0.00
2008,12,29,05,10,0.00
2008,12,29,05,11,0.20
2008,12,29,05,12,0.10
2008,12,29,05,13,0.90
2008,12,29,05,14,2.20
2008,12,29,05,15,1.50
2008,12,29,05,16,1.40
2008,12,29,05,17,0.00
2008,12,29,05,18,0.20
2008,12,29,05,19,0.00
2008,12,29,05,20,0.00
2008,12,29,05,21,0.70
2008,12,29,05,22,0.60
2008,12,29,05,23,0.00
2008,12,29,05,24,0.00
2008,12,29,05,25,0.00
2008,12,29,05,26,0.10
2008,12,29,05,27,1.00
2008,12,29,05,28,1.60
2008,12,29,05,29,1.80
2008,12,29,05,30,0.90
2008,12,29,05,31,2.40
2008,12,29,05,32,2.00
2008,12,29,05,33,0.90
2008,12,29,05,34,0.10
2008,12,29,05,35,0.00
2008,12,29,05,36,0.30
2008,12,29,05,37,0.00
2008,12,29,05,38,0.00
2008,12,29,05,39,0.00
2008,12,29,05,40,0.00
2008,12,29,05,41,0.00
2008,12,29,05,42,0.00
2008,12,29,05,43,0.00
2008,12,29,05,44,1.20
2008,12,29,05,45,0.70
2008,12,29,05,46,0.10
2008,12,29,05,47,0.90
2008,12,29,05,48,0.90
2008,12,29,05,49,1.10
2008,12,29,05,50,0.70
2008,12,29,05,51,0.20
2008,12,29,05,52,0.50
2008,12,29,05,53,0.40
2008,12,29,05,54,0.60
2008,12,29,05,55,0.10
2008,12,29,05,56,2.10
2008,12,29,05,57,0.50
2008,12,29,05,58,1.80
2008,12,29,05,59,3.70
2008,12,29,06,00,5.20
2008,12,29,06,01,4.30
2008,12,29,06,02,4.60
2008,12,29,06,03,2.40
2008,12,29,06,04,3.50
2008,12,29,06,05,6.20
2008,12,29,06,06,4.00
2008,12,29,06,07,5.80
2008,12,29,06,08,5.90
2008,12,29,06,09,5.00
2008,12,29,06,10,4.10
2008,12,29,06,11,2.70
2008,12,29,06,12,2.70
2008,12,29,06,13,2.80
2008,12,29,06,14,5.30
2008,12,29,06,15,3.70
2008,12,29,06,16,1.70
2008,12,29,06,17,3.60
2008,12,29,06,18,4.90
2008,12,29,06,19,4.60
2008,12,29,06,20,4.20
2008,12,29,06,21,3.90
2008,12,29,06,22,3.90
2008,12,29,06,23,1.50
2008,12,29,06,24,1.10
2008,12,29,06,25,1.40
2008,12,29,06,26,0.30
2008,12,29,06,27,0.80
2008,12,29,06,28,1.80
2008,12,29,06,29,1.90
2008,12,29,06,30,1.90
2008,12,29,06,31,0.70
2008,12,29,06,32,0.30
2008,12,29,06,33,0.10
2008,12,29,06,34,0.20
2008,12,29,06,35,2.60
2008,12,29,06,36,3.10
2008,12,29,06,37,2.50
2008,12,29,06,38,3.20
2008,12,29,06,39,2.90
2008,12,29,06,40,2.50
2008,12,29,06,41,3.00
2008,12,29,06,42,2.80
2008,12,29,06,43,1.70
2008,12,29,06,44,2.60
2008,12,29,06,45,3.30
2008,12,29,06,46,1.40
2008,12,29,06,47,2.00
2008,12,29,06,48,3.10
2008,12,29,06,49,1.10
2008,12,29,06,50,1.10
2008,12,29,06,51,2.50
2008,12,29,06,52,2.10
2008,12,29,06,53,1.20
2008,12,29,06,54,3.30
2008,12,29,06,55,1.20
2008,12,29,06,56,1.60
2008,12,29,06,57,1.60
2008,12,29,06,58,1.90
2008,12,29,06,59,0.90
2008,12,29,07,00,3.40
2008,12,29,07,01,1.90
2008,12,29,07,02,4.50
2008,12,29,07,03,4.90
2008,12,29,07,04,2.80
2008,12,29,07,05,0.90
2008,12,29,07,06,3.90
2008,12,29,07,07,2.00
2008,12,29,07,08,3.30
2008,12,29,07,09,3.10
2008,12,29,07,10,2.00
2008,12,29,07,11,5.00
2008,12,29,07,12,3.10
2008,12,29,07,13,4.90
2008,12,29,07,14,2.30
2008,12,29,07,15,0.80
2008,12,29,07,16,1.40
2008,12,29,07,17,0.80
2008,12,29,07,18,3.00
2008,12,29,07,19,1.70
2008,12,29,07,20,3.40
2008,12,29,07,21,0.40
2008,12,29,07,22,0.90
2008,12,29,07,23,1.40
2008,12,29,07,24,5.60
2008,12,29,07,25,4.80
2008,12,29,07,26,4.20
2008,12,29,07,27,4.10
2008,12,29,07,28,3.30
2008,12,29,07,29,3.10
2008,12,29,07,30,0.10
2008,12,29,07,31,0.30
2008,12,29,07,32,0.00
2008,12,29,07,33,1.80
2008,12,29,07,34,0.90
2008,12,29,07,35,2.10
2008,12,29,07,36,2.60
2008,12,29,07,37,3.10
2008,12,29,07,38,3.20
2008,12,29,07,39,3.50
2008,12,29,07,40,3.00
2008,12,29,07,41,2.00
2008,12,29,07,42,2.50
2008,12,29,07,43,2.10
2008,12,29,07,44,0.90
2008,12,29,07,45,1.40
2008,12,29,07,46,1.50
2008,12,29,07,47,0.60
2008,12,29,07,48,0.70
2008,12,29,07,49,0.00
2008,12,29,07,50,1.90
2008,12,29,07,51,2.10
2008,12,29,07,52,1.50
2008,12,29,07,53,2.00
2008,12,29,07,54,1.40
2008,12,29,07,55,1.30
2008,12,29,07,56,1.20
2008,12,29,07,57,1.30
2008,12,29,07,58,0.40
2008,12,29,07,59,2.00
2008,12,29,08,00,0.90
2008,12,29,08,01,0.80
2008,12,29,08,02,0.00
2008,12,29,08,03,0.00
2008,12,29,08,04,0.30
2008,12,29,08,05,0.60
2008,12,29,08,06,1.50
2008,12,29,08,07,1.40
2008,12,29,08,08,0.40
2008,12,29,08,09,1.70
2008,12,29,08,10,1.40
2008,12,29,08,11,0.20
2008,12,29,08,12,1.90
2008,12,29,08,13,2.90
2008,12,29,08,14,2.60
2008,12,29,08,15,3.60
2008,12,29,08,16,1.70
2008,12,29,08,17,3.70
2008,12,29,08,18,3.10
2008,12,29,08,19,2.90
2008,12,29,08,20,4.80
2008,12,29,08,21,3.70
2008,12,29,08,22,1.80
2008,12,29,08,23,2.00
2008,12,29,08,24,1.70
2008,12,29,08,25,2.10
2008,12,29,08,26,0.90
2008,12,29,08,27,0.30
2008,12,29,08,28,0.90
2008,12,29,08,29,1.30
2008,12,29,08,30,0.00
2008,12,29,08,31,1.20
2008,12,29,08,32,2.00
2008,12,29,08,33,2.10
2008,12,29,08,34,3.30
2008,12,29,08,35,3.80
2008,12,29,08,36,3.10
2008,12,29,08,37,2.50
2008,12,29,08,38,0.60
2008,12,29,08,39,0.30
2008,12,29,08,40,0.80
2008,12,29,08,41,1.50
2008,12,29,08,42,3.00
2008,12,29,08,43,0.80
2008,12,29,08,44,3.30
2008,12,29,08,45,2.80
2008,12,29,08,46,1.90
2008,12,29,08,47,3.00
2008,12,29,08,48,3.10
2008,12,29,08,49,3.90
2008,12,29,08,50,3.90
2008,12,29,08,51,3.40
2008,12,29,08,52,3.00
2008,12,29,08,53,2.90
2008,12,29,08,54,4.70
2008,12,29,08,55,4.20
2008,12,29,08,56,2.80
2008,12,29,08,57,1.50
2008,12,29,08,58,0.80
2008,12,29,08,59,2.50
2008,12,29,09,00,3.60
2008,12,29,09,01,2.60
2008,12,29,09,02,3.80
2008,12,29,09,03,3.10
2008,12,29,09,04,4.40
2008,12,29,09,05,4.90
2008,12,29,09,06,4.70
2008,12,29,09,07,4.60
2008,12,29,09,08,2.50
2008,12,29,09,09,2.20
2008,12,29,09,10,3.90
2008,12,29,09,11,3.00
2008,12,29,09,12,0.40
2008,12,29,09,13,2.00
2008,12,29,09,14,1.90
2008,12,29,09,15,3.60
2008,12,29,09,16,2.60
2008,12,29,09,17,3.50
2008,12,29,09,18,1.90
2008,12,29,09,19,3.10
2008,12,29,09,20,3.00
2008,12,29,09,21,4.50
2008,12,29,09,22,4.20
2008,12,29,09,23,0.90
2008,12,29,09,24,2.40
2008,12,29,09,25,1.30
2008,12,29,09,26,4.70
2008,12,29,09,27,0.90
2008,12,29,09,28,4.70
2008,12,29,09,29,3.70
2008,12,29,09,30,4.00
2008,12,29,09,31,3.90
2008,12,29,09,32,3.00
2008,12,29,09,33,2.20
2008,12,29,09,34,5.50
2008,12,29,09,35,5.40
2008,12,29,09,36,8.40
2008,12,29,09,37,4.90
2008,12,29,09,38,3.00
2008,12,29,09,39,4.30
2008,12,29,09,40,4.20
2008,12,29,09,41,3.00
2008,12,29,09,42,1.90
2008,12,29,09,43,4.10
2008,12,29,09,44,2.50
2008,12,29,09,45,0.90
2008,12,29,09,46,2.00
2008,12,29,09,47,1.10
2008,12,29,09,48,4.30
2008,12,29,09,49,0.40
2008,12,29,09,50,1.40
2008,12,29,09,51,1.50
2008,12,29,09,52,0.80
2008,12,29,09,53,1.30
2008,12,29,09,54,1.30
2008,12,29,09,55,0.80
2008,12,29,09,56,1.10
2008,12,29,09,57,2.10
2008,12,29,09,58,1.60
2008,12,29,09,59,0.50
2008,12,29,10,00,0.10
2008,12,29,10,01,0.80
2008,12,29,10,02,0.70
2008,12,29,10,03,1.30
2008,12,29,10,04,2.40
2008,12,29,10,05,2.20
2008,12,29,10,06,1.90
2008,12,29,10,07,1.40
2008,12,29,10,08,1.50
2008,12,29,10,09,1.90
2008,12,29,10,10,1.00
2008,12,29,10,11,1.40
2008,12,29,10,12,0.40
2008,12,29,10,13,0.00
2008,12,29,10,14,0.00
2008,12,29,10,15,0.20
2008,12,29,10,16,0.60
2008,12,29,10,17,2.40
2008,12,29,10,18,4.00
2008,12,29,10,19,1.80
2008,12,29,10,20,1.90
2008,12,29,10,21,1.40
2008,12,29,10,22,1.50
2008,12,29,10,23,0.40
2008,12,29,10,24,0.90
2008,12,29,10,25,0.80
2008,12,29,10,26,1.00
2008,12,29,10,27,0.70
2008,12,29,10,28,0.00
2008,12,29,10,29,0.00
2008,12,29,10,30,0.00
2008,12,29,10,31,0.40
2008,12,29,10,32,0.20
2008,12,29,10,33,1.80
2008,12,29,10,34,2.00
2008,12,29,10,35,2.00
2008,12,29,10,36,0.30
2008,12,29,10,37,0.00
2008,12,29,10,38,0.00
2008,12,29,10,39,0.00
2008,12,29,10,40,0.00
2008,12,29,10,41,0.00
2008,12,29,10,42,0.00
2008,12,29,10,43,0.00
2008,12,29,10,44,0.00
2008,12,29,10,45,0.00
2008,12,29,10,46,0.00
2008,12,29,10,47,0.00
2008,12,29,10,48,0.00
2008,12,29,10,49,0.00
2008,12,29,10,50,0.00
2008,12,29,10,51,0.00
2008,12,29,10,52,0.00
2008,12,29,10,53,0.60
2008,12,29,10,54,0.90
2008,12,29,10,55,1.30
2008,12,29,10,56,5.60
2008,12,29,10,57,3.50
2008,12,29,10,58,2.20
2008,12,29,10,59,2.60
2008,12,29,11,00,4.40
2008,12,29,11,01,18.00
2008,12,29,11,02,20.10
2008,12,29,11,03,25.80
2008,12,29,11,04,28.70
2008,12,29,11,05,45.90
2008,12,29,11,06,43.10
2008,12,29,11,07,39.60
2008,12,29,11,08,33.60
2008,12,29,11,09,29.20
2008,12,29,11,10,28.10
2008,12,29,11,11,26.00
2008,12,29,11,12,30.40
2008,12,29,11,13,27.90
2008,12,29,11,14,35.70
2008,12,29,11,15,32.40
2008,12,29,11,16,30.10
2008,12,29,11,17,31.50
2008,12,29,11,18,33.20
2008,12,29,11,19,26.20
2008,12,29,11,20,28.40
2008,12,29,11,21,30.20
2008,12,29,11,22,30.20
2008,12,29,11,23,33.20
2008,12,29,11,24,33.30
2008,12,29,11,25,32.10
2008,12,29,11,26,35.40
2008,12,29,11,27,34.10
2008,12,29,11,28,32.60
2008,12,29,11,29,37.80
2008,12,29,11,30,35.90
2008,12,29,11,31,30.80
2008,12,29,11,32,35.50
2008,12,29,11,33,40.60
2008,12,29,11,34,40.60
2008,12,29,11,35,38.40
2008,12,29,11,36,23.30
2008,12,29,11,37,32.10
2008,12,29,11,38,31.90
2008,12,29,11,39,34.20
2008,12,29,11,40,25.60
2008,12,29,11,41,32.20
2008,12,29,11,42,32.70
2008,12,29,11,43,30.00
2008,12,29,11,44,34.50
2008,12,29,11,45,38.20
2008,12,29,11,46,34.60
2008,12,29,11,47,28.50
2008,12,29,11,48,31.40
2008,12,29,11,49,27.80
2008,12,29,11,50,34.10
2008,12,29,11,51,36.30
2008,12,29,11,52,39.00
2008,12,29,11,53,26.60
2008,12,29,11,54,40.10
2008,12,29,11,55,27.80
2008,12,29,11,56,39.50
2008,12,29,11,57,35.10
2008,12,29,11,58,30.30
2008,12,29,11,59,34.10
2008,12,29,12,00,35.90
2008,12,29,12,01,32.80
2008,12,29,12,02,26.40
2008,12,29,12,03,34.10
2008,12,29,12,04,31.60
2008,12,29,12,05,35.70
2008,12,29,12,06,36.10
2008,12,29,12,07,31.20
2008,12,29,12,08,36.90
2008,12,29,12,09,37.40
2008,12,29,12,10,30.50
2008,12,29,12,11,34.00
2008,12,29,12,12,29.30
2008,12,29,12,13,29.90
2008,12,29,12,14,34.80
2008,12,29,12,15,40.70
2008,12,29,12,16,27.70
2008,12,29,12,17,30.70
2008,12,29,12,18,42.40
2008,12,29,12,19,36.50
2008,12,29,12,20,25.60
2008,12,29,12,21,23.30
2008,12,29,12,22,28.70
2008,12,29,12,23,31.40
2008,12,29,12,24,31.80
2008,12,29,12,25,31.00
2008,12,29,12,26,35.90
2008,12,29,12,27,29.30
2008,12,29,12,28,31.50
2008,12,29,12,29,33.40
2008,12,29,12,30,27.30
2008,12,29,12,31,29.30
2008,12,29,12,32,34.20
2008,12,29,12,33,24.50
2008,12,29,12,34,30.60
2008,12,29,12,35,32.10
2008,12,29,12,36,40.10
2008,12,29,12,37,23.50
2008,12,29,12,38,30.30
2008,12,29,12,39,29.60
2008,12,29,12,40,30.10
2008,12,29,12,41,31.20
2008,12,29,12,42,28.70
2008,12,29,12,43,20.00
2008,12,29,12,44,25.70
2008,12,29,12,45,17.50
2008,12,29,12,46,28.10
2008,12,29,12,47,16.30
2008,12,29,12,48,33.10
2008,12,29,12,49,32.40
2008,12,29,12,50,23.30
2008,12,29,12,51,17.40
2008,12,29,12,52,19.70
2008,12,29,12,53,19.70
2008,12,29,12,54,24.70
2008,12,29,12,55,29.50
2008,12,29,12,56,27.60
2008,12,29,12,57,43.20
2008,12,29,12,58,28.00
2008,12,29,12,59,28.30
2008,12,29,13,00,25.40
2008,12,29,13,01,23.00
2008,12,29,13,02,25.30
2008,12,29,13,03,24.90
2008,12,29,13,04,19.70
2008,12,29,13,05,20.70
2008,12,29,13,06,21.20
2008,12,29,13,07,21.30
2008,12,29,13,08,24.20
2008,12,29,13,09,31.30
2008,12,29,13,10,18.80
2008,12,29,13,11,17.10
2008,12,29,13,12,16.40
2008,12,29,13,13,27.00
2008,12,29,13,14,19.60
2008,12,29,13,15,15.40
2008,12,29,13,16,25.20
2008,12,29,13,17,15.30
2008,12,29,13,18,31.80
2008,12,29,13,19,29.20
2008,12,29,13,20,35.40
2008,12,29,13,21,30.10
2008,12,29,13,22,25.80
2008,12,29,13,23,22.70
2008,12,29,13,24,21.60
2008,12,29,13,25,23.50
2008,12,29,13,26,26.80
2008,12,29,13,27,32.20
2008,12,29,13,28,23.50
2008,12,29,13,29,23.90
2008,12,29,13,30,29.60
2008,12,29,13,31,29.80
2008,12,29,13,32,26.90
2008,12,29,13,33,19.50
2008,12,29,13,34,20.10
2008,12,29,13,35,22.90
2008,12,29,13,36,22.10
2008,12,29,13,37,20.80
2008,12,29,13,38,24.60
2008,12,29,13,39,27.40
2008,12,29,13,40,23.90
2008,12,29,13,41,23.50
2008,12,29,13,42,17.40
2008,12,29,13,43,21.10
2008,12,29,13,44,26.90
2008,12,29,13,45,25.80
2008,12,29,13,46,24.80
2008,12,29,13,47,25.10
2008,12,29,13,48,23.00
2008,12,29,13,49,22.40
2008,12,29,13,50,26.50
2008,12,29,13,51,23.00
2008,12,29,13,52,16.40
2008,12,29,13,53,24.70
2008,12,29,13,54,24.10
2008,12,29,13,55,23.70
2008,12,29,13,56,21.80
2008,12,29,13,57,22.00
2008,12,29,13,58,21.30
2008,12,29,13,59,17.40
2008,12,29,14,00,29.80
2008,12,29,14,01,24.50
2008,12,29,14,02,21.50
2008,12,29,14,03,26.00
2008,12,29,14,04,29.40
2008,12,29,14,05,31.40
2008,12,29,14,06,33.10
2008,12,29,14,07,26.80
2008,12,29,14,08,19.30
2008,12,29,14,09,21.90
2008,12,29,14,10,20.20
2008,12,29,14,11,24.30
2008,12,29,14,12,23.90
2008,12,29,14,13,19.30
2008,12,29,14,14,16.50
2008,12,29,14,15,15.30
2008,12,29,14,16,29.30
2008,12,29,14,17,24.50
2008,12,29,14,18,20.70
2008,12,29,14,19,22.80
2008,12,29,14,20,29.80
2008,12,29,14,21,24.00
2008,12,29,14,22,26.70
2008,12,29,14,23,35.70
2008,12,29,14,24,32.70
2008,12,29,14,25,29.60
2008,12,29,14,26,19.50
2008,12,29,14,27,22.60
2008,12,29,14,28,20.20
2008,12,29,14,29,22.80
2008,12,29,14,30,9.10
2008,12,29,14,31,20.90
2008,12,29,14,32,20.40
2008,12,29,14,33,22.00
2008,12,29,14,34,16.50
2008,12,29,14,35,14.40
2008,12,29,14,36,20.30
2008,12,29,14,37,15.60
2008,12,29,14,38,13.00
2008,12,29,14,39,8.20
2008,12,29,14,40,9.70
2008,12,29,14,41,9.10
2008,12,29,14,42,17.80
2008,12,29,14,43,10.80
2008,12,29,14,44,17.70
2008,12,29,14,45,10.80
2008,12,29,14,46,15.90
2008,12,29,14,47,14.80
2008,12,29,14,48,13.20
2008,12,29,14,49,22.20
2008,12,29,14,50,14.50
2008,12,29,14,51,18.00
2008,12,29,14,52,20.60
2008,12,29,14,53,19.70
2008,12,29,14,54,12.50
2008,12,29,14,55,23.00
2008,12,29,14,56,22.60
2008,12,29,14,57,11.00
2008,12,29,14,58,16.70
2008,12,29,14,59,15.70
2008,12,29,15,00,14.00
2008,12,29,15,01,14.80
2008,12,29,15,02,13.50
2008,12,29,15,03,20.00
2008,12,29,15,04,17.10
2008,12,29,15,05,11.40
2008,12,29,15,06,14.40
2008,12,29,15,07,21.40
2008,12,29,15,08,16.10
2008,12,29,15,09,15.60
2008,12,29,15,10,12.90
2008,12,29,15,11,25.60
2008,12,29,15,12,26.60
2008,12,29,15,13,31.50
2008,12,29,15,14,19.10
2008,12,29,15,15,27.70
2008,12,29,15,16,30.70
2008,12,29,15,17,25.20
2008,12,29,15,18,19.40
2008,12,29,15,19,24.00
2008,12,29,15,20,25.30
2008,12,29,15,21,28.30
2008,12,29,15,22,29.00
2008,12,29,15,23,22.80
2008,12,29,15,24,25.80
2008,12,29,15,25,32.30
2008,12,29,15,26,25.20
2008,12,29,15,27,24.20
2008,12,29,15,28,22.30
2008,12,29,15,29,24.00
2008,12,29,15,30,29.00
2008,12,29,15,31,22.00
2008,12,29,15,32,28.10
2008,12,29,15,33,30.00
2008,12,29,15,34,25.40
2008,12,29,15,35,23.90
2008,12,29,15,36,32.00
2008,12,29,15,37,29.70
2008,12,29,15,38,24.70
2008,12,29,15,39,26.40
2008,12,29,15,40,17.90
2008,12,29,15,41,24.70
2008,12,29,15,42,24.10
2008,12,29,15,43,27.30
2008,12,29,15,44,19.40
2008,12,29,15,45,18.20
2008,12,29,15,46,19.30
2008,12,29,15,47,24.80
2008,12,29,15,48,23.60
2008,12,29,15,49,22.30
2008,12,29,15,50,24.90
2008,12,29,15,51,27.20
2008,12,29,15,52,28.80
2008,12,29,15,53,35.00
2008,12,29,15,54,30.70
2008,12,29,15,55,28.90
2008,12,29,15,56,23.10
2008,12,29,15,57,27.50
2008,12,29,15,58,23.70
2008,12,29,15,59,21.50
2008,12,29,16,00,22.70
2008,12,29,16,01,20.90
2008,12,29,16,02,19.80
2008,12,29,16,03,17.40
2008,12,29,16,04,19.30
2008,12,29,16,05,25.40
2008,12,29,16,06,21.40
2008,12,29,16,07,21.80
2008,12,29,16,08,25.80
2008,12,29,16,09,18.00
2008,12,29,16,10,22.50
2008,12,29,16,11,26.70
2008,12,29,16,12,22.10
2008,12,29,16,13,21.30
2008,12,29,16,14,21.90
2008,12,29,16,15,23.50
2008,12,29,16,16,21.20
2008,12,29,16,17,21.90
2008,12,29,16,18,16.70
2008,12,29,16,19,24.80
2008,12,29,16,20,21.20
2008,12,29,16,21,25.90
2008,12,29,16,22,24.40
2008,12,29,16,23,28.10
2008,12,29,16,24,31.30
2008,12,29,16,25,26.50
2008,12,29,16,26,20.70
2008,12,29,16,27,27.00
2008,12,29,16,28,18.40
2008,12,29,16,29,29.40
2008,12,29,16,30,34.10
2008,12,29,16,31,35.90
2008,12,29,16,32,44.70
2008,12,29,16,33,33.50
2008,12,29,16,34,20.50
2008,12,29,16,35,21.30
2008,12,29,16,36,21.00
2008,12,29,16,37,23.30
2008,12,29,16,38,16.70
2008,12,29,16,39,13.40
2008,12,29,16,40,9.70
2008,12,29,16,41,17.20
2008,12,29,16,42,10.60
2008,12,29,16,43,10.90
2008,12,29,16,44,7.80
2008,12,29,16,45,15.70
2008,12,29,16,46,16.30
2008,12,29,16,47,10.50
2008,12,29,16,48,12.30
2008,12,29,16,49,7.20
2008,12,29,16,50,4.60
2008,12,29,16,51,7.50
2008,12,29,16,52,3.10
2008,12,29,16,53,3.90
2008,12,29,16,54,6.70
2008,12,29,16,55,4.90
2008,12,29,16,56,10.80
2008,12,29,16,57,12.20
2008,12,29,16,58,5.70
2008,12,29,16,59,5.80
2008,12,29,17,00,5.80
2008,12,29,17,01,2.40
2008,12,29,17,02,5.30
2008,12,29,17,03,2.10
2008,12,29,17,04,9.40
2008,12,29,17,05,4.10
2008,12,29,17,06,4.20
2008,12,29,17,07,2.70
2008,12,29,17,08,2.50
2008,12,29,17,09,3.00
2008,12,29,17,10,5.80
2008,12,29,17,11,1.70
2008,12,29,17,12,1.40
2008,12,29,17,13,5.70
2008,12,29,17,14,4.60
2008,12,29,17,15,5.10
2008,12,29,17,16,4.00
2008,12,29,17,17,5.20
2008,12,29,17,18,5.30
2008,12,29,17,19,2.70
2008,12,29,17,20,3.00
2008,12,29,17,21,5.60
2008,12,29,17,22,12.10
2008,12,29,17,23,9.80
2008,12,29,17,24,19.10
2008,12,29,17,25,8.60
2008,12,29,17,26,19.80
2008,12,29,17,27,18.40
2008,12,29,17,28,8.70
2008,12,29,17,29,9.50
2008,12,29,17,30,16.60
2008,12,29,17,31,13.00
2008,12,29,17,32,16.90
2008,12,29,17,33,14.70
2008,12,29,17,34,10.80
2008,12,29,17,35,9.10
2008,12,29,17,36,13.20
2008,12,29,17,37,13.60
2008,12,29,17,38,15.90
2008,12,29,17,39,13.30
2008,12,29,17,40,11.30
2008,12,29,17,41,9.30
2008,12,29,17,42,18.80
2008,12,29,17,43,15.80
2008,12,29,17,44,9.50
2008,12,29,17,45,19.60
2008,12,29,17,46,11.30
2008,12,29,17,47,11.90
2008,12,29,17,48,15.20
2008,12,29,17,49,20.20
2008,12,29,17,50,12.90